Location: Petruro
(41.0333°N, 14.7833°E)
Time: 04:42:48
(UTC+00:00)

Cosmos 405 Rocket - Visible Passes

Search period start: 17 October 2021 00:00
Search period end: 27 October 2021 00:00
Orbit: 488 x 552 km, 81.3° (Epoch: 16 October)

Date Brightness Start Highest point End Pass type
(mag) Time Alt. Az. Time Alt. Az. Time Alt. Az.
17 Oct 4.3 16:47:09 10° NNE 16:49:50 17° ENE 16:52:34 10° ESE visible
17 Oct 4.6 18:22:19 10° NNW 18:25:51 32° W 18:29:26 10° SSW visible
18 Oct 4.3 18:08:36 10° NNW 18:12:15 37° W 18:15:57 10° SSW visible
19 Oct 4.0 17:54:53 10° NNW 17:58:39 43° W 18:02:26 10° SSW visible
20 Oct 3.7 17:41:11 10° NNW 17:45:02 50° W 17:48:55 10° S visible
21 Oct 3.4 17:27:29 10° NNW 17:31:25 58° W 17:35:22 10° S visible
22 Oct 3.2 17:13:49 10° NNW 17:17:48 68° W 17:21:47 10° S visible
23 Oct 2.9 17:00:10 10° NNW 17:04:10 79° W 17:08:11 10° S visible
24 Oct 2.8 16:46:31 10° N 16:50:32 89° ENE 16:54:34 10° S visible
25 Oct 2.8 16:32:52 10° N 16:36:54 77° E 16:40:56 10° SSE visible
26 Oct 5.7 04:48:57 10° SE 04:51:52 22° E 04:54:49 10° NE visible
